This is the latest recevied weather packets stored in our database for station/object KQ4WWD. If no packets are shown the sender has not sent any weather packets the latest 10 day(s).
| Time | Temp. | Humidity | Pressure | Rain* | Wind** | Luminosity | Snow |
|---|---|---|---|---|---|---|---|
| 1777589351 | 27.78° C | 71% | 1009 hPa | 0 mm | - | 134 W/m² | - |
| 1777589048 | 28.33° C | 70% | 1009.2 hPa | 0 mm | - | 105 W/m² | - |
| 1777588744 | 27.78° C | 69% | 1009.1 hPa | 0 mm | - | 153 W/m² | - |
| 1777588440 | 27.78° C | 69% | 1008.8 hPa | 0 mm | - | 111 W/m² | - |
| 1777588135 | 28.33° C | 69% | 1009 hPa | 0 mm | - | 145 W/m² | - |
| 1777587832 | 28.33° C | 67% | 1008.8 hPa | 0 mm | - | 156 W/m² | - |
| 1777587531 | 28.33° C | 65% | 1009.2 hPa | 0 mm | - | 189 W/m² | - |
| 1777587227 | 28.33° C | 65% | 1009 hPa | 0 mm | - | 205 W/m² | - |
| 1777586923 | 28.89° C | 65% | 1009.3 hPa | 0 mm | - | 147 W/m² | - |
| 1777586619 | 28.89° C | 65% | 1009.3 hPa | 0 mm | - | 217 W/m² | - |
| 1777586315 | 28.89° C | 65% | 1009.4 hPa | 0 mm | - | 255 W/m² | - |
| 1777586013 | 28.89° C | 64% | 1009.2 hPa | 0 mm | - | 344 W/m² | - |
| 1777585713 | 28.89° C | 64% | 1009.4 hPa | 0 mm | - | 167 W/m² | - |
| 1777585413 | 28.89° C | 64% | 1009.4 hPa | 0 mm | - | 255 W/m² | - |
| 1777585108 | 28.89° C | 63% | 1009.3 hPa | 0 mm | - | 325 W/m² | - |
| 1777584804 | 28.89° C | 64% | 1009.3 hPa | 0 mm | - | 395 W/m² | - |
| 1777584502 | 28.89° C | 65% | 1009.2 hPa | 0 mm | - | 255 W/m² | - |
| 1777584199 | 28.89° C | 64% | 1009.2 hPa | 0 mm | - | 233 W/m² | - |
| 1777583898 | 28.89° C | 64% | 1009.4 hPa | 0 mm | - | 121 W/m² | - |
| 1777583594 | 29.44° C | 62% | 1009.3 hPa | 0 mm | - | 163 W/m² | - |
| 1777583292 | 29.44° C | 62% | 1009.2 hPa | 0 mm | - | 152 W/m² | - |
| 1777582988 | 30° C | 62% | 1009.1 hPa | 0 mm | - | 175 W/m² | - |
| 1777582686 | 30° C | 61% | 1009 hPa | 0 mm | - | 219 W/m² | - |
| 1777582380 | 30° C | 62% | 1009 hPa | 0 mm | - | 229 W/m² | - |
| 1777582079 | 30° C | 61% | 1009.1 hPa | 0 mm | - | 296 W/m² | - |
* Rain latest hour (hover to see other rain measurements)
** Current wind speed in m/s (hover to see current wind gust speed)